Weather in Sucre

Bolivia     19°02′32″S   65°16′19″W
temp.,
°C
wind,
m/s
gust,
m/s
humid.,
%
clouds,
%
prec.,
mm/h
press.,
hPa
HPBL,
m
29 july, thu
thu2923:00+5ne22621 0.0 1025388
02:00+3ne22662 0.0 1024221
05:00+2nne117014 0.0 1023149
08:00+3nne226812 0.0 1025226
11:00+8ne225088 0.0 1022562
14:00+12nne44395 0.0 1016818
17:00+12ne444179 0.0 1015823
20:00+9nne335139 0.0 1018240
30 july, fri
fri3023:00+7nne225760 0.0 1021149
02:00+6ne226114 0.0 102094
05:00+5nne00659 0.0 102049
08:00+7ne115697 0.0 1021118
11:00+11ne324373 0.0 1019527
14:00+15nne443319 0.0 1014891
17:00+14nne4436100 0.0 10131050
20:00+12ne2349100 0.0 1016282
31 july, sat
sat3123:00+10nne2261100 0.0 1019222
02:00+8nne227698 0.0 1019180
05:00+8ene117775 0.0 1019152
08:00+8nne227888 0.0 1020245
11:00+12nne3361100 0.0 1019756
14:00+16ne454796 0.1 10131487
17:00+15nne654688 0.1 10131609
20:00+13ene455599 0.1 1018989
1 august, sun
sun123:00+10ene3360100 0.0 1022539
02:00+8ne3362100 0.0 1023659
05:00+7ne2365100 0.0 1025623
08:00+7ne226799 0.1 1027577
11:00+7ne2265100 0.0 1029715
14:00+8ne3261100 0.0 1026765
17:00+8ne2260100 0.0 1026806
20:00+7ne216099 0.0 1028502
2 august, mon
mon223:00+7nne2160100 0.0 1029315
02:00+6nne2261100 0.0 1028285
05:00+6ne0164100 0.0 1028143
08:00+7n1162100 0.0 1028211
11:00+10nne2252100 0.0 1027748
14:00+14ne4344100 0.0 10211248
17:00+14ne334429 0.0 10201245
20:00+11ne23528 0.0 1022268